EW7112 Weather Reports


time (UTC)temp
C
wind
direction
speed
KPH
gust
KPH
rain 1hr
cm
rain 24hr
cm
rain mn
cm
humidity
%
barometer
mb
20260505230041 28 266 3.2 14.5 0.00 0.00 0.00 54 982.2
20260505224534 29 323 3.2 14.5 0.00 0.00 0.00 53 981.7
20260505223027 30 276 4.8 12.9 0.00 0.00 0.00 48 981.8
20260505221529 30 337 4.8 11.3 0.00 0.00 0.00 47 981.4
20260505220030 31 335 6.4 14.5 0.00 0.00 0.00 47 981.2
20260505214522 32 317 1.6 8.0 0.00 0.00 0.00 48 981.4
20260505213018 32 248 3.2 11.3 0.00 0.00 0.00 47 981.2
20260505211516 32 294 3.2 11.3 0.00 0.00 0.00 49 981.5
20260505210014 32 274 4.8 12.9 0.00 0.00 0.00 50 981.6
20260505204514 32 221 3.2 11.3 0.00 0.00 0.00 51 981.7
20260505203022 32 183 3.2 14.5 0.00 0.00 0.00 52 981.8
20260505201506 32 202 3.2 11.3 0.00 0.00 0.00 53 982.2
20260505200002 31 259 1.6 12.9 0.00 0.00 0.00 54 982.4
20260505194601 31 204 3.2 12.9 0.00 0.00 0.00 54 982.4
20260505193119 31 293 3.2 12.9 0.00 0.00 0.00 57 982.5
20260505191558 30 324 3.2 11.3 0.00 0.00 0.00 59 982.5
20260505190048 29 223 4.8 16.1 0.00 0.00 0.00 61 982.4
20260505184552 28 32 4.8 17.7 0.00 0.00 0.00 64 982.4
20260505183044 28 285 4.8 16.1 0.00 0.00 0.00 64 982.7
20260505181542 28 162 8.0 14.5 0.00 0.00 0.00 63 982.6
20260505180044 28 176 6.4 16.1 0.00 0.00 0.00 64 982.8
20260505174539 28 240 8.0 24.1 0.00 0.00 0.00 63 982.6
20260505173034 28 185 6.4 24.1 0.00 0.00 0.00 66 982.6
20260505171536 27 236 3.2 12.9 0.00 0.00 0.00 67 982.8
20260505170034 27 264 6.4 17.7 0.00 0.00 0.00 68 982.9
20260505164527 26 222 6.4 20.9 0.00 0.00 0.00 69 982.8
20260505163030 26 236 8.0 20.9 0.00 0.00 0.00 70 982.7
20260505161524 26 126 6.4 19.3 0.00 0.00 0.00 72 982.6
20260505153018 25 212 8.0 19.3 0.00 0.00 0.00 75 982.5
20260505151511 24 175 9.7 24.1 0.00 0.00 0.00 75 982.5
20260505124557 21 236 8.0 20.9 0.00 0.00 0.00 83 982.1
20260505123100 21 155 4.8 19.3 0.00 0.00 0.00 83 982.2
20260505121548 21 236 4.8 16.1 0.00 0.00 0.00 83 981.8
20260505120054 21 213 4.8 24.1 0.00 0.00 0.00 83 981.8
20260505114546 21 286 4.8 19.3 0.00 0.00 0.00 83 981.7
20260505113045 21 224 4.8 17.7 0.00 0.00 0.00 83 981.6
20260505111540 21 241 4.8 20.9 0.00 0.00 0.00 83 981.6
20260505101536 21 224 4.8 11.3 0.00 0.00 0.00 82 981.7
20260505100033 22 164 6.4 17.7 0.00 0.00 0.00 81 981.9
20260505094532 22 213 4.8 12.9 0.00 0.00 0.00 81 981.7
20260505093030 22 245 3.2 12.9 0.00 0.00 0.00 81 981.7
20260505091531 22 174 4.8 12.9 0.00 0.00 0.00 81 982.0
20260505090026 22 189 4.8 14.5 0.00 0.00 0.00 81 982.1
20260505084542 22 224 6.4 16.1 0.00 0.00 0.00 80 982.2
20260505083041 22 143 3.2 19.3 0.00 0.00 0.00 79 982.3
20260505081625 22 160 4.8 19.3 0.00 0.00 0.00 79 982.2
20260505080033 22 188 4.8 14.5 0.00 0.00 0.00 78 982.2
20260505074519 22 118 3.2 12.9 0.00 0.00 0.00 77 982.4
20260505073029 22 207 4.8 12.9 0.00 0.00 0.00 76 982.7
20260505071513 22 137 4.8 14.5 0.00 0.00 0.00 76 982.9
20260505070010 22 146 3.2 16.1 0.00 0.00 0.00 74 983.3
20260505064508 23 117 4.8 14.5 0.00 0.00 0.00 73 983.5
20260505063006 23 110 4.8 14.5 0.00 0.00 0.00 72 983.6
20260505061503 23 162 1.6 11.3 0.00 0.00 0.00 71 983.6
20260505060003 23 200 4.8 12.9 0.00 0.00 0.00 70 983.7
20260505054502 23 214 1.6 9.7 0.00 0.00 0.00 70 983.4
20260505053107 23 184 4.8 12.9 0.00 0.00 0.00 70 983.5
20260505051559 23 155 3.2 11.3 0.00 0.00 0.00 70 983.5
20260505041602 23 219 4.8 19.3 0.00 0.00 0.00 69 983.6
20260505040057 23 225 4.8 16.1 0.00 0.00 0.00 69 983.9
20260505034553 24 180 4.8 17.7 0.00 0.00 0.00 69 983.9
20260505033052 23 186 3.2 16.1 0.00 0.00 0.00 68 983.7
20260505031553 24 121 1.6 11.3 0.00 0.00 0.00 68 983.8
20260505030109 24 79 1.6 14.5 0.00 0.00 0.00 68 983.9
20260505024556 24 192 4.8 14.5 0.00 0.00 0.00 67 983.9
20260505023050 24 136 3.2 14.5 0.00 0.00 0.00 67 983.8
20260505021551 24 203 4.8 17.7 0.00 0.00 0.00 66 983.6
20260505020049 24 265 3.2 14.5 0.00 0.00 0.00 66 983.6
20260505014603 25 85 3.2 9.7 0.00 0.00 0.00 65 983.6
20260505013051 25 172 4.8 16.1 0.00 0.00 0.00 64 983.6
20260505011547 25 195 6.4 22.5 0.00 0.00 0.00 63 983.8
20260505010055 25 239 8.0 17.7 0.00 0.00 0.00 63 983.8
20260505004550 25 107 8.0 25.7 0.00 0.00 0.00 62 983.6
20260505003055 25 215 4.8 22.5 0.00 0.00 0.00 62 983.7
20260505001545 26 240 6.4 17.7 0.00 0.00 0.00 61 983.9
20260505000041 26 332 8.0 22.5 0.00 0.00 0.00 61 984.1
20260504234543 26 175 9.7 25.7 0.00 0.00 0.00 60 984.1
20260504233038 26 195 4.8 24.1 0.00 0.00 0.00 60 984.3
20260504231536 26 104 6.4 24.1 0.00 0.00 0.00 59 984.1